Neiva, Colombia

12:31 AM COT on August 30, 2016 (GMT -0500)
Benito Salas

Weather History for SKNV - September, 2013

Change the Weather History Date:

Monday, September 23, 2013

  Actual Average Record
Temperature  
Mean Temperature 86 °F -  
Max Temperature 97 °F 92 °F - ()
Min Temperature 75 °F 72 °F - ()
Cooling Degree Days 21    
Growing Degree Days 36 (Base 50)    
Moisture  
Dew Point 61 °F    
Average Humidity 37    
Maximum Humidity 58    
Minimum Humidity 16    
Precipitation  
Precipitation 0.00 in 0.23 in - ()
Sea Level Pressure  
Sea Level Pressure 29.83 in    
Wind  
Wind Speed 4 mph ()    
Max Wind Speed 16 mph    
Max Gust Speed -    
Visibility 6.9 miles    
Events      
T = Trace of Precipitation, MM = Missing Value Source: Averaged Metar Reports

Daily Weather History Graph

Daily Weather History Graph

Search for Another Location

Airport or City:

Trip Planner

Search our weather history database for the weather conditions in past years. The results will help you decide how hot, cold, wet, or windy it might be!

Date:

Astronomy

Sep. 23, 2013 Rise Set
Actual Time 5:50 AM COT 5:56 PM COT
Civil Twilight 5:29 AM COT 6:17 PM COT
Nautical Twilight 5:05 AM COT 6:41 PM COT
Astronomical Twilight 4:41 AM COT 7:05 PM COT
Moon 9:27 PM COT (9/23) 9:09 AM COT (9/23)
Length of Visible Light 12h 47m
Length of Day
12h 06m
Waning Gibbous, 81% of the Moon is Illuminated
Sep 23
Waning Gibbous
Sep 26
Last Quarter
Oct 4
New
Oct 11
First Quarter
Oct 18
Full

Hourly Weather History & Observations

Time (COT) Temp. Heat Index Dew Point Humidity Pressure Visibility Wind Dir Wind Speed Gust Speed Precip Events Conditions
6:00 AM 82.4 °F 84.6 °F 66.2 °F 58% 29.89 in 6.2 mi Calm Calm - N/A   Mostly Cloudy
7:00 AM 82 °F - 64 °F 44% 29.84 in 9 mi Calm Calm - -   Scattered Clouds
7:00 AM 82.4 °F 83.9 °F 64.4 °F 54% 29.92 in 6.2 mi Calm Calm - N/A   Scattered Clouds
8:00 AM 86.0 °F 87.3 °F 64.4 °F 48% 29.96 in 6.2 mi South 4.6 mph - N/A   Scattered Clouds
9:00 AM 86.0 °F 87.3 °F 64.4 °F 48% 29.96 in 6.2 mi South 6.9 mph - N/A   Mostly Cloudy
10:00 AM 91.4 °F 93.2 °F 64.4 °F 41% 29.95 in 6.2 mi SSE 6.9 mph - N/A   Mostly Cloudy
11:00 AM 89.6 °F 90.1 °F 62.6 °F 40% 29.93 in 6.2 mi South 3.5 mph - N/A   Mostly Cloudy
12:00 PM 96.8 °F 95.8 °F 57.2 °F 27% 29.89 in 6.2 mi South 4.6 mph - N/A   Scattered Clouds
1:00 PM 97 °F - 58 °F 18% 29.72 in 9 mi SSW 15.7 mph - -   Scattered Clouds
1:00 PM 96.8 °F 96.2 °F 59.0 °F 28% 29.86 in 6.2 mi SSW 16.1 mph - N/A   Partly Cloudy
2:00 PM 95.0 °F 93.7 °F 57.2 °F 28% 29.80 in 6.2 mi South 13.8 mph - N/A   Partly Cloudy
3:00 PM 96.8 °F 95.8 °F 57.2 °F 27% 29.75 in 6.2 mi South 12.7 mph - N/A   Partly Cloudy
4:00 PM 98 °F - 57 °F 16% 29.61 in 9 mi South 13.4 mph - -   Scattered Clouds
4:00 PM 98.6 °F 97.6 °F 57.2 °F 25% 29.73 in 6.2 mi South 12.7 mph - N/A   Mostly Cloudy
5:00 PM 93.2 °F 92.6 °F 59.0 °F 32% 29.75 in 6.2 mi South 6.9 mph - N/A   Mostly Cloudy
7:00 PM 91 °F - 60 °F 25% 29.69 in 9 mi Calm Calm - -   Scattered Clouds
7:00 PM 91.4 °F 90.7 °F 59.0 °F 34% 29.80 in 6.2 mi Calm Calm - N/A   Mostly Cloudy
8:00 PM 87.8 °F 88.5 °F 62.6 °F 43% 29.86 in 6.2 mi Calm Calm - N/A   Mostly Cloudy
9:00 PM 84.2 °F 85.0 °F 62.6 °F 48% 29.88 in 6.2 mi South 3.5 mph - N/A   Unknown
10:00 PM 84 °F - 64 °F 41% 29.80 in 9 mi SSW 2.2 mph - -   Partly Cloudy
10:00 PM 84.2 °F 85.6 °F 64.4 °F 51% 29.89 in 6.2 mi Variable 2.3 mph - N/A   Mostly Cloudy